Simultaneous Nadir Overpasses (SNOs) Predictions

Prediction of SNOs between LANDSAT-8 and NOAA-19 Satellite Orbit:

Table of predicted SNOs for the next 14.0 days since TLE Epoch: 12/4/2015
Index Date (LANDSAT-8) Time (LANDSAT-8) Lat,Lon (LANDSAT-8) SZA (LANDSAT-8 ) Date (NOAA-19) Time (NOAA-19) Lat,Lon (NOAA-19) SZA (NOAA-19 ) Distance(km) Time Diff (sec)
1 12/05/2015 09:13:19 73.89, 44.59 96.21 12/05/2015 09:12:50 73.92, 44.60 96.24 3.31 29
2 12/05/2015 10:02:48 -73.82,-147.94 83.87 12/05/2015 10:03:51 -73.83,-147.94 83.85 1.60 63
3 12/07/2015 13:57:22 74.61, -24.79 97.23 12/07/2015 13:56:17 74.65, -28.13 97.20 98.49 65
4 12/07/2015 14:47:04 -73.87, 141.11 83.56 12/07/2015 14:47:04 -73.87, 141.22 83.56 3.44 0
5 12/07/2015 15:36:44 73.11, -52.86 95.66 12/07/2015 15:37:48 73.13, -49.77 95.76 99.89 64
6 12/09/2015 19:31:19 -73.97, 70.26 83.23 12/09/2015 19:30:18 -73.95, 70.23 83.25 1.65 61
7 12/09/2015 20:20:46 73.89,-122.29 96.69 12/09/2015 20:21:15 73.89,-122.33 96.69 1.42 29
8 12/12/2015 01:05:02 73.92, 166.73 96.91 12/12/2015 01:04:28 73.96, 166.73 96.95 3.64 34
9 12/12/2015 01:54:31 -73.86, -25.79 83.16 12/12/2015 01:55:30 -73.84, -25.74 83.17 2.23 59
10 12/14/2015 06:38:46 -73.94, -96.66 82.92 12/14/2015 06:38:44 -73.94, -96.76 82.92 2.90 2
11 12/14/2015 07:28:22 73.38, 69.77 96.51 12/14/2015 07:29:29 73.33, 72.00 96.51 71.21 67
12 12/16/2015 11:23:02 -73.97,-167.67 82.78 12/16/2015 11:21:57 -74.00,-167.67 82.75 3.84 65
13 12/16/2015 12:12:28 73.88,
